sat.trackr.live / text

‹ back to catalog

STARLINK-32326

NORAD 61674 · 2024-193P

PAYLOAD ACTIVE UNKNOWN

§ Identity

Operator
Country
US
Launch date
2024-10-26
Launch site
AFETR
Launch vehicle
Mass (kg)
RCS (m²)

Purposes: comms

External: N2YO · Heavens-Above · Gunter

§ Orbital elements

Epoch: 2026-09-21T08:31:13.029024Z

Period
94.01 min
Inclination
53.1595°
Eccentricity
0.0001280
Mean motion
15.31707391 rev/d
Perigee alt
469.8 km
Apogee alt
471.6 km
Semi-major
6,848.9 km
B*
1.5595e-5
RAAN
260.7601°
Arg perigee
85.8644°
Mean anomaly
274.2504°
Rev number
10,650

§ Raw data

STARLINK-323261 61674U 24193P   26264.35501191  .00000119  00000+0  15595-4 0  99972 61674  53.1595 260.7601 0001280  85.8644 274.2504 15.31707391106505

JSON: /api/v1/satellites/61674 · /tle

For live sub-satellite position, see the globe view (requires WebGL).

§ Visibility from observer

Set your observer location to see the next 7 days of passes ≥ 10°. The values pass through the URL so the page stays shareable.

No JS? Fill the form by hand. The geolocation button needs JavaScript.